ITY76 LEBL-LIRF

Flight info

Callsign ITY76
Flight time 1h 24m
Altitude 39000
Route DIPES N725 OSPOK DCT NOLVI DCT ORKUM DCT ELSAG DCT ALG DCT ROMPO DCT RUXOP DCT BATOX DCT TINTO L5 VALMA VALM3A
Aircraft A320/M-SDE3FGHIRWY/LB1

Departure

Time 2026-05-07 20:05
Airport Josep Tarradellas Barcelona-El Prat Airport (LEBL)

Arrival

Time 2026-05-07 21:30
Airport Rome–Fiumicino Leonardo da Vinci International Airport (LIRF)
Time Latitude Longitude Altitude Speed Heading
2026-05-07 19:38 41.30056 2.07397 21 ft 0 kts 26°
2026-05-07 19:50 41.30057 2.07397 21 ft 0 kts 26°
2026-05-07 19:50 41.30043 2.07388 20 ft 2 kts 26°
2026-05-07 19:50 41.30027 2.07377 23 ft 3 kts 26°
2026-05-07 19:50 41.30015 2.07362 20 ft 2 kts 60°
2026-05-07 19:51 41.30004 2.07346 22 ft 3 kts 15°
2026-05-07 19:51 41.29987 2.07344 21 ft 2 kts 319°
2026-05-07 19:51 41.29979 2.07363 22 ft 3 kts 261°
2026-05-07 19:51 41.29983 2.07385 19 ft 2 kts 271°
2026-05-07 19:52 41.29978 2.07407 20 ft 3 kts 307°
2026-05-07 19:52 41.29968 2.07426 20 ft 2 kts 318°
2026-05-07 19:52 41.29954 2.07440 20 ft 3 kts 324°
2026-05-07 19:52 41.29944 2.07452 19 ft 0 kts 286°
2026-05-07 19:54 41.29944 2.07451 17 ft 0 kts 285°
2026-05-07 19:55 41.29947 2.07421 18 ft 3 kts 269°
2026-05-07 19:55 41.29940 2.07395 17 ft 3 kts 249°
2026-05-07 19:55 41.29933 2.07374 19 ft 2 kts 248°
2026-05-07 19:56 41.29927 2.07353 17 ft 3 kts 248°
2026-05-07 19:56 41.29917 2.07321 18 ft 8 kts 248°
2026-05-07 19:56 41.29884 2.07221 17 ft 14 kts 244°
2026-05-07 19:56 41.29818 2.07182 16 ft 12 kts 160°
2026-05-07 19:57 41.29736 2.07194 19 ft 12 kts 227°
2026-05-07 19:57 41.29693 2.07088 16 ft 14 kts 241°
2026-05-07 19:57 41.29624 2.07072 15 ft 2 kts 158°
2026-05-07 19:57 41.29611 2.07080 15 ft 2 kts 155°
2026-05-07 19:58 41.29606 2.07083 17 ft 0 kts 155°
2026-05-07 19:58 41.29576 2.07101 15 ft 9 kts 155°
2026-05-07 19:58 41.29571 2.07104 15 ft 0 kts 155°
2026-05-07 20:02 41.29570 2.07104 15 ft 1 kts 156°
2026-05-07 20:02 41.29568 2.07105 15 ft 1 kts 163°
2026-05-07 20:02 41.29547 2.07117 18 ft 5 kts 154°
2026-05-07 20:02 41.29528 2.07130 17 ft 1 kts 154°
2026-05-07 20:03 41.29507 2.07143 18 ft 6 kts 154°
2026-05-07 20:03 41.29483 2.07195 18 ft 8 kts 89°
2026-05-07 20:03 41.29505 2.07258 18 ft 0 kts 64°
2026-05-07 20:04 41.29564 2.07420 19 ft 53 kts 65°
2026-05-07 20:05 41.29817 2.08162 22 ft 120 kts 65°
2026-05-07 20:05 41.30248 2.09380 108 ft 163 kts 64°
2026-05-07 20:05 41.30583 2.10292 471 ft 167 kts 64°
2026-05-07 20:05 41.31058 2.11692 1298 ft 165 kts 67°
2026-05-07 20:06 41.31493 2.13082 2088 ft 161 kts 70°
2026-05-07 20:06 41.31925 2.14524 2612 ft 175 kts 66°
2026-05-07 20:06 41.32645 2.16571 3275 ft 194 kts 66°
2026-05-07 20:06 41.32984 2.17725 3575 ft 204 kts 77°
2026-05-07 20:07 41.32881 2.20351 4081 ft 232 kts 98°
2026-05-07 20:07 41.32741 2.21820 4325 ft 250 kts 96°
2026-05-07 20:07 41.32588 2.24167 5153 ft 258 kts 95°
2026-05-07 20:07 41.32469 2.26579 6045 ft 265 kts 93°
2026-05-07 20:08 41.32382 2.29053 6917 ft 270 kts 92°
2026-05-07 20:08 41.32312 2.31571 7821 ft 273 kts 92°
2026-05-07 20:08 41.32229 2.34112 8706 ft 278 kts 92°
2026-05-07 20:08 41.32151 2.36700 9591 ft 282 kts 92°
2026-05-07 20:09 41.32075 2.39327 10347 ft 291 kts 92°
2026-05-07 20:09 41.31994 2.42127 10648 ft 314 kts 92°
2026-05-07 20:09 41.31904 2.45134 10992 ft 334 kts 92°
2026-05-07 20:10 41.31707 2.51370 12406 ft 346 kts 91°
2026-05-07 20:10 41.31598 2.54590 13152 ft 351 kts 92°
2026-05-07 20:10 41.31487 2.57860 13886 ft 356 kts 91°
2026-05-07 20:10 41.31378 2.61170 14511 ft 361 kts 90°
2026-05-07 20:11 41.31501 2.64525 15139 ft 365 kts 84°
2026-05-07 20:11 41.31751 2.67912 15721 ft 372 kts 85°
2026-05-07 20:11 41.32002 2.71356 16376 ft 375 kts 85°
2026-05-07 20:11 41.32248 2.74788 17010 ft 380 kts 85°
2026-05-07 20:12 41.32497 2.78303 17622 ft 384 kts 86°
2026-05-07 20:12 41.32747 2.81862 18243 ft 389 kts 86°
2026-05-07 20:12 41.32997 2.85465 18758 ft 393 kts 86°
2026-05-07 20:12 41.33245 2.89097 18944 ft 395 kts 86°
2026-05-07 20:13 41.33492 2.92724 18999 ft 395 kts 86°
2026-05-07 20:13 41.33744 2.96365 19001 ft 395 kts 86°
2026-05-07 20:13 41.33996 3.00004 19002 ft 395 kts 86°
2026-05-07 20:13 41.34247 3.03644 19002 ft 395 kts 86°
2026-05-07 20:14 41.34495 3.07279 18998 ft 393 kts 87°
2026-05-07 20:14 41.34546 3.10841 19000 ft 389 kts 97°
2026-05-07 20:14 41.34070 3.14359 19001 ft 385 kts 108°
2026-05-07 20:14 41.33093 3.17654 19003 ft 382 kts 120°
2026-05-07 20:15 41.31670 3.20609 19005 ft 379 kts 130°
2026-05-07 20:15 41.29879 3.23163 19009 ft 377 kts 137°
2026-05-07 20:15 41.28014 3.25610 19005 ft 375 kts 137°
2026-05-07 20:15 41.26157 3.28040 19004 ft 375 kts 137°
2026-05-07 20:16 41.24328 3.30435 19004 ft 374 kts 137°
2026-05-07 20:16 41.22468 3.32867 19006 ft 374 kts 137°
2026-05-07 20:16 41.20612 3.35293 19005 ft 374 kts 137°
2026-05-07 20:16 41.18758 3.37719 19003 ft 374 kts 137°
2026-05-07 20:17 41.16903 3.40144 19003 ft 375 kts 137°
2026-05-07 20:17 41.15047 3.42569 19001 ft 375 kts 137°
2026-05-07 20:17 41.13188 3.44993 19003 ft 374 kts 137°
2026-05-07 20:17 41.11333 3.47415 19002 ft 375 kts 137°
2026-05-07 20:18 41.09478 3.49843 19002 ft 375 kts 136°
2026-05-07 20:18 41.07807 3.52442 18999 ft 377 kts 127°
2026-05-07 20:18 41.06461 3.55402 19000 ft 374 kts 118°
2026-05-07 20:18 41.05505 3.58607 18998 ft 375 kts 109°
2026-05-07 20:19 41.04881 3.61970 19000 ft 376 kts 105°
2026-05-07 20:19 41.04288 3.65338 19000 ft 376 kts 106°
2026-05-07 20:19 41.03688 3.68706 19000 ft 376 kts 106°
2026-05-07 20:19 41.03083 3.72073 18999 ft 376 kts 106°
2026-05-07 20:20 41.02476 3.75437 19000 ft 376 kts 106°
2026-05-07 20:20 41.01867 3.78805 19000 ft 376 kts 106°
2026-05-07 20:20 41.01259 3.82171 18996 ft 376 kts 106°
2026-05-07 20:20 41.00663 3.85479 18999 ft 375 kts 106°
2026-05-07 20:21 41.00059 3.88838 19002 ft 374 kts 106°
2026-05-07 20:21 40.99455 3.92187 18999 ft 374 kts 106°
2026-05-07 20:21 40.98848 3.95533 19000 ft 374 kts 107°
2026-05-07 20:21 40.98238 3.98882 19000 ft 374 kts 107°
2026-05-07 20:22 40.97626 4.02230 19002 ft 374 kts 107°
2026-05-07 20:22 40.97011 4.05589 19247 ft 378 kts 107°
2026-05-07 20:22 40.96397 4.08938 19832 ft 381 kts 107°
2026-05-07 20:22 40.95770 4.12359 20381 ft 386 kts 107°
2026-05-07 20:23 40.95131 4.15840 20895 ft 391 kts 107°
2026-05-07 20:23 40.94482 4.19368 21405 ft 397 kts 107°
2026-05-07 20:23 40.93825 4.22936 21871 ft 403 kts 106°
2026-05-07 20:23 40.93158 4.26557 22376 ft 407 kts 107°
2026-05-07 20:24 40.92483 4.30212 22876 ft 412 kts 107°
2026-05-07 20:24 40.91800 4.33912 23371 ft 416 kts 107°
2026-05-07 20:24 40.91107 4.37648 23796 ft 421 kts 107°
2026-05-07 20:24 40.90412 4.41372 24201 ft 424 kts 107°
2026-05-07 20:25 40.89702 4.45167 24615 ft 427 kts 107°
2026-05-07 20:25 40.88989 4.48992 25019 ft 430 kts 107°
2026-05-07 20:25 40.88276 4.52839 25416 ft 433 kts 107°
2026-05-07 20:25 40.87557 4.56715 25807 ft 435 kts 107°
2026-05-07 20:26 40.86832 4.60598 26241 ft 433 kts 107°
2026-05-07 20:26 40.86116 4.64437 26959 ft 427 kts 108°
2026-05-07 20:26 40.85419 4.68213 27664 ft 421 kts 103°
2026-05-07 20:26 40.84894 4.72005 28373 ft 418 kts 98°
2026-05-07 20:27 40.84595 4.75767 29054 ft 415 kts 94°
2026-05-07 20:27 40.84447 4.79565 29607 ft 417 kts 92°
2026-05-07 20:27 40.84403 4.83421 29773 ft 424 kts 90°
2026-05-07 20:27 40.84415 4.87354 29904 ft 433 kts 90°
2026-05-07 20:28 40.84400 4.91356 30087 ft 439 kts 91°
2026-05-07 20:28 40.84353 4.95405 30276 ft 443 kts 91°
2026-05-07 20:28 40.84274 4.99486 30522 ft 446 kts 92°
2026-05-07 20:28 40.84160 5.03585 30808 ft 448 kts 93°
2026-05-07 20:29 40.84016 5.07699 31027 ft 451 kts 94°
2026-05-07 20:29 40.83489 5.16040 31004 ft 466 kts 96°
2026-05-07 20:30 40.83443 5.24665 31015 ft 466 kts 86°
2026-05-07 20:30 40.84309 5.33122 31056 ft 472 kts 81°
2026-05-07 20:31 40.85444 5.41676 31195 ft 478 kts 81°
2026-05-07 20:31 40.85997 5.45793 30974 ft 480 kts 83°
2026-05-07 20:31 40.86590 5.49999 30985 ft 478 kts 89°
2026-05-07 20:32 40.87602 5.58672 31051 ft 478 kts 81°
2026-05-07 20:32 40.88783 5.67320 30975 ft 478 kts 79°
2026-05-07 20:33 40.90022 5.75900 30990 ft 479 kts 83°
2026-05-07 20:33 40.91250 5.84569 30984 ft 479 kts 83°
2026-05-07 20:34 40.92467 5.93176 30986 ft 479 kts 83°
2026-05-07 20:34 40.93691 6.01845 30986 ft 479 kts 83°
2026-05-07 20:35 40.94908 6.10438 31843 ft 465 kts 84°
2026-05-07 20:35 40.95136 6.14595 32687 ft 444 kts 99°
2026-05-07 20:35 40.94631 6.18474 33336 ft 426 kts 115°
2026-05-07 20:35 40.93625 6.22110 33887 ft 418 kts 119°
2026-05-07 20:36 40.92589 6.25674 34363 ft 413 kts 119°
2026-05-07 20:36 40.91560 6.29206 34834 ft 409 kts 119°
2026-05-07 20:36 40.90548 6.32692 35316 ft 404 kts 119°
2026-05-07 20:36 40.89553 6.36131 35807 ft 399 kts 119°
2026-05-07 20:37 40.88561 6.39558 36089 ft 400 kts 119°
2026-05-07 20:37 40.87558 6.42992 36306 ft 402 kts 119°
2026-05-07 20:37 40.86545 6.46461 36501 ft 405 kts 119°
2026-05-07 20:37 40.85541 6.49894 36645 ft 408 kts 120°
2026-05-07 20:38 40.84512 6.53403 36832 ft 411 kts 120°
2026-05-07 20:38 40.83479 6.56933 37019 ft 413 kts 119°
2026-05-07 20:38 40.82443 6.60484 37189 ft 416 kts 119°
2026-05-07 20:38 40.81403 6.64051 37391 ft 418 kts 119°
2026-05-07 20:39 40.80356 6.67643 37554 ft 420 kts 119°
2026-05-07 20:39 40.79304 6.71246 37722 ft 422 kts 119°
2026-05-07 20:39 40.78245 6.74869 37891 ft 424 kts 119°
2026-05-07 20:39 40.77178 6.78504 38049 ft 426 kts 119°
2026-05-07 20:40 40.76116 6.82108 38199 ft 428 kts 119°
2026-05-07 20:40 40.75037 6.85770 38301 ft 430 kts 119°
2026-05-07 20:40 40.73948 6.89460 38458 ft 432 kts 119°
2026-05-07 20:40 40.72855 6.93156 38592 ft 434 kts 119°
2026-05-07 20:41 40.71756 6.96867 38713 ft 436 kts 119°
2026-05-07 20:41 40.70651 7.00595 38840 ft 436 kts 119°
2026-05-07 20:41 40.69544 7.04324 38934 ft 439 kts 119°
2026-05-07 20:42 40.67314 7.11824 38966 ft 447 kts 119°
2026-05-07 20:42 40.65342 7.19683 38965 ft 468 kts 102°
2026-05-07 20:43 40.64814 7.28324 38966 ft 480 kts 99°
2026-05-07 20:43 40.64356 7.37203 38963 ft 489 kts 99°
2026-05-07 20:44 40.63892 7.46212 38958 ft 497 kts 99°
2026-05-07 20:44 40.63397 7.55249 38960 ft 499 kts 99°
2026-05-07 20:45 40.62882 7.64367 38954 ft 502 kts 99°
2026-05-07 20:45 40.62360 7.73555 38956 ft 503 kts 99°
2026-05-07 20:46 40.61825 7.82744 38962 ft 504 kts 99°
2026-05-07 20:46 40.61291 7.91873 38961 ft 504 kts 100°
2026-05-07 20:47 40.60939 8.01090 38933 ft 509 kts 91°
2026-05-07 20:47 40.61666 8.10290 38937 ft 512 kts 88°
2026-05-07 20:48 40.62433 8.19573 38963 ft 512 kts 87°
2026-05-07 20:48 40.64134 8.28604 38961 ft 518 kts 69°
2026-05-07 20:49 40.66918 8.37360 38936 ft 518 kts 69°
2026-05-07 20:49 40.69685 8.46110 38936 ft 519 kts 69°
2026-05-07 20:50 40.72453 8.54913 38942 ft 519 kts 69°
2026-05-07 20:50 40.75206 8.63723 38945 ft 519 kts 69°
2026-05-07 20:51 40.77934 8.72475 38922 ft 520 kts 69°
2026-05-07 20:51 40.80680 8.81310 38953 ft 520 kts 69°
2026-05-07 20:52 40.83425 8.90152 38953 ft 521 kts 69°
2026-05-07 20:52 40.86162 8.99005 38965 ft 521 kts 69°
2026-05-07 20:53 40.88874 9.07818 38966 ft 521 kts 69°
2026-05-07 20:53 40.91597 9.16686 38945 ft 521 kts 69°
2026-05-07 20:54 40.94321 9.25581 38963 ft 522 kts 69°
2026-05-07 20:54 40.97037 9.34490 38990 ft 523 kts 69°
2026-05-07 20:55 40.99732 9.43356 39023 ft 522 kts 69°
2026-05-07 20:55 41.02432 9.52280 38996 ft 522 kts 69°
2026-05-07 20:56 41.05126 9.61220 38997 ft 523 kts 69°
2026-05-07 20:56 41.07821 9.70173 38997 ft 523 kts 69°
2026-05-07 20:57 41.10482 9.79064 38994 ft 523 kts 69°
2026-05-07 20:57 41.13150 9.88050 38970 ft 523 kts 69°
2026-05-07 20:58 41.15781 9.97005 38995 ft 522 kts 69°
2026-05-07 20:58 41.18415 10.05986 38997 ft 522 kts 69°
2026-05-07 20:59 41.21046 10.14885 38668 ft 519 kts 69°
2026-05-07 20:59 41.22368 10.19345 38394 ft 519 kts 69°
2026-05-07 20:59 41.23693 10.23811 37966 ft 520 kts 69°
2026-05-07 20:59 41.25015 10.28272 37186 ft 517 kts 69°
2026-05-07 21:00 41.26321 10.32696 36482 ft 512 kts 69°
2026-05-07 21:00 41.27615 10.37090 35680 ft 509 kts 69°
2026-05-07 21:00 41.28904 10.41473 34793 ft 509 kts 69°
2026-05-07 21:00 41.30191 10.45851 33977 ft 507 kts 69°
2026-05-07 21:01 41.31466 10.50209 32963 ft 505 kts 69°
2026-05-07 21:01 41.32715 10.54489 31982 ft 502 kts 69°
2026-05-07 21:01 41.33972 10.58805 31108 ft 497 kts 69°
2026-05-07 21:01 41.35203 10.63034 30598 ft 484 kts 69°
2026-05-07 21:02 41.36404 10.67170 29939 ft 475 kts 70°
2026-05-07 21:02 41.37581 10.71237 29294 ft 466 kts 70°
2026-05-07 21:02 41.38734 10.75220 28698 ft 456 kts 70°
2026-05-07 21:02 41.39866 10.79123 28115 ft 447 kts 70°
2026-05-07 21:03 41.40976 10.82961 27546 ft 442 kts 70°
2026-05-07 21:03 41.42059 10.86719 26981 ft 439 kts 70°
2026-05-07 21:03 41.43143 10.90503 26409 ft 437 kts 70°
2026-05-07 21:03 41.44225 10.94280 25848 ft 434 kts 71°
2026-05-07 21:04 41.45301 10.98028 25294 ft 431 kts 71°
2026-05-07 21:04 41.46370 11.01749 24753 ft 429 kts 70°
2026-05-07 21:04 41.47430 11.05455 24230 ft 426 kts 71°
2026-05-07 21:04 41.48483 11.09131 23726 ft 425 kts 71°
2026-05-07 21:05 41.49530 11.12822 23145 ft 423 kts 71°
2026-05-07 21:05 41.50557 11.16468 22657 ft 418 kts 71°
2026-05-07 21:05 41.51556 11.20032 22184 ft 413 kts 71°
2026-05-07 21:05 41.52554 11.23598 21707 ft 409 kts 71°
2026-05-07 21:06 41.53544 11.27141 21222 ft 405 kts 71°
2026-05-07 21:06 41.54522 11.30646 20750 ft 401 kts 71°
2026-05-07 21:06 41.55489 11.34116 20254 ft 398 kts 71°
2026-05-07 21:06 41.56454 11.37570 19768 ft 395 kts 71°
2026-05-07 21:07 41.57408 11.40973 19468 ft 387 kts 71°
2026-05-07 21:07 41.58343 11.44314 19140 ft 381 kts 71°
2026-05-07 21:07 41.59261 11.47575 18654 ft 379 kts 71°
2026-05-07 21:07 41.60184 11.50850 18220 ft 376 kts 71°
2026-05-07 21:08 41.61106 11.54128 17764 ft 374 kts 71°
2026-05-07 21:08 41.62016 11.57355 17333 ft 369 kts 70°
2026-05-07 21:08 41.62919 11.60555 16868 ft 366 kts 70°
2026-05-07 21:08 41.63811 11.63727 16425 ft 364 kts 70°
2026-05-07 21:09 41.64693 11.66881 15994 ft 361 kts 71°
2026-05-07 21:09 41.65569 11.70014 15559 ft 358 kts 71°
2026-05-07 21:09 41.66438 11.73121 15140 ft 356 kts 71°
2026-05-07 21:09 41.67289 11.76170 14739 ft 353 kts 71°
2026-05-07 21:10 41.68145 11.79235 14321 ft 351 kts 70°
2026-05-07 21:10 41.68995 11.82274 14048 ft 344 kts 70°
2026-05-07 21:10 41.69818 11.85218 13949 ft 333 kts 71°
2026-05-07 21:10 41.70616 11.88081 13772 ft 325 kts 71°
2026-05-07 21:11 41.71399 11.90899 13453 ft 321 kts 71°
2026-05-07 21:11 41.72172 11.93689 13076 ft 319 kts 71°
2026-05-07 21:11 41.73796 11.99136 12586 ft 308 kts 58°
2026-05-07 21:12 41.75267 12.01063 12470 ft 300 kts 29°
2026-05-07 21:12 41.77208 12.01856 12341 ft 289 kts
2026-05-07 21:12 41.79157 12.01434 12288 ft 284 kts 341°
2026-05-07 21:12 41.81039 12.00638 12243 ft 284 kts 340°
2026-05-07 21:13 41.82924 11.99832 12180 ft 284 kts 341°
2026-05-07 21:13 41.84803 11.99034 12123 ft 283 kts 341°
2026-05-07 21:13 41.86678 11.98240 12051 ft 283 kts 341°
2026-05-07 21:13 41.88556 11.97445 11992 ft 282 kts 341°
2026-05-07 21:14 41.90404 11.96664 11906 ft 282 kts 341°
2026-05-07 21:14 41.92275 11.95873 11822 ft 282 kts 341°
2026-05-07 21:14 41.94140 11.95085 11739 ft 282 kts 341°
2026-05-07 21:14 41.96007 11.94295 11649 ft 281 kts 341°
2026-05-07 21:15 41.97872 11.93503 11558 ft 281 kts 341°
2026-05-07 21:15 41.99726 11.92713 11474 ft 280 kts 341°
2026-05-07 21:15 42.01585 11.91923 11377 ft 279 kts 341°
2026-05-07 21:15 42.03440 11.91136 11285 ft 279 kts 341°
2026-05-07 21:16 42.05290 11.90350 11196 ft 279 kts 341°
2026-05-07 21:16 42.07111 11.89574 11103 ft 277 kts 341°
2026-05-07 21:16 42.08926 11.88801 10927 ft 270 kts 341°
2026-05-07 21:16 42.10702 11.88044 10729 ft 266 kts 341°
2026-05-07 21:17 42.12460 11.87293 10528 ft 265 kts 341°
2026-05-07 21:17 42.14212 11.86542 10303 ft 263 kts 341°
2026-05-07 21:17 42.15956 11.85794 10101 ft 263 kts 341°
2026-05-07 21:17 42.17694 11.85049 9875 ft 262 kts 341°
2026-05-07 21:18 42.19445 11.84299 9337 ft 268 kts 341°
2026-05-07 21:18 42.21290 11.83842 8838 ft 273 kts
2026-05-07 21:18 42.23111 11.84410 8364 ft 274 kts 26°
2026-05-07 21:18 42.24757 11.85621 7887 ft 265 kts 32°
2026-05-07 21:19 42.26129 11.87206 7416 ft 257 kts 52°
2026-05-07 21:19 42.27032 11.89218 6959 ft 249 kts 70°
2026-05-07 21:19 42.27438 11.91452 6503 ft 243 kts 86°
2026-05-07 21:19 42.27348 11.93696 6028 ft 238 kts 103°
2026-05-07 21:20 42.26798 11.95769 5546 ft 233 kts 119°
2026-05-07 21:20 42.25869 11.97500 5079 ft 230 kts 134°
2026-05-07 21:20 42.24620 11.98822 4601 ft 228 kts 150°
2026-05-07 21:20 42.23157 11.99612 4214 ft 224 kts 166°
2026-05-07 21:21 42.21663 12.00050 4070 ft 216 kts 166°
2026-05-07 21:21 42.20229 12.00482 4022 ft 212 kts 166°
2026-05-07 21:21 42.18788 12.00987 4029 ft 215 kts 162°
2026-05-07 21:21 42.17358 12.01592 4100 ft 215 kts 158°
2026-05-07 21:22 42.16122 12.02660 4158 ft 211 kts 140°
2026-05-07 21:22 42.14983 12.03892 4164 ft 214 kts 144°
2026-05-07 21:22 42.13647 12.04816 4152 ft 218 kts 154°
2026-05-07 21:22 42.12342 12.05822 4140 ft 216 kts 142°
2026-05-07 21:23 42.11144 12.07036 4091 ft 216 kts 140°
2026-05-07 21:23 42.09972 12.08284 3960 ft 212 kts 139°
2026-05-07 21:23 42.08842 12.09474 3786 ft 203 kts 140°
2026-05-07 21:23 42.07734 12.10615 3539 ft 199 kts 140°
2026-05-07 21:24 42.06639 12.11724 3286 ft 195 kts 140°
2026-05-07 21:24 42.05671 12.12951 3074 ft 186 kts 127°
2026-05-07 21:24 42.04837 12.14223 3046 ft 178 kts 128°
2026-05-07 21:24 42.04022 12.15430 3005 ft 176 kts 128°
2026-05-07 21:25 42.03219 12.16610 2970 ft 165 kts 128°
2026-05-07 21:25 42.02458 12.17726 2926 ft 160 kts 128°
2026-05-07 21:25 42.01651 12.18744 2882 ft 161 kts 145°
2026-05-07 21:25 42.00614 12.19330 2633 ft 162 kts 155°
2026-05-07 21:26 41.99535 12.19839 2563 ft 167 kts 157°
2026-05-07 21:26 41.98428 12.20327 2504 ft 168 kts 158°
2026-05-07 21:26 41.97309 12.20806 2488 ft 170 kts 158°
2026-05-07 21:26 41.96198 12.21276 2337 ft 169 kts 159°
2026-05-07 21:27 41.95085 12.21744 2129 ft 167 kts 158°
2026-05-07 21:27 41.94007 12.22191 1954 ft 156 kts 159°
2026-05-07 21:27 41.92973 12.22620 1740 ft 154 kts 159°
2026-05-07 21:27 41.91956 12.23054 1527 ft 152 kts 159°
2026-05-07 21:28 41.90946 12.23484 1336 ft 152 kts 159°
2026-05-07 21:28 41.89946 12.23902 1113 ft 148 kts 160°
2026-05-07 21:28 41.88977 12.24312 901 ft 144 kts 161°
2026-05-07 21:28 41.88023 12.24712 762 ft 143 kts 162°
2026-05-07 21:29 41.87087 12.25110 579 ft 143 kts 161°
2026-05-07 21:29 41.86143 12.25507 398 ft 142 kts 163°
2026-05-07 21:29 41.85206 12.25897 211 ft 140 kts 163°
2026-05-07 21:29 41.84283 12.26276 28 ft 134 kts 162°
2026-05-07 21:30 41.83526 12.26602 15 ft 91 kts 162°
2026-05-07 21:30 41.83086 12.26783 11 ft 42 kts 163°
2026-05-07 21:30 41.82893 12.26860 13 ft 28 kts 167°
2026-05-07 21:30 41.82688 12.26864 11 ft 31 kts 189°
2026-05-07 21:31 41.82471 12.26800 11 ft 34 kts 195°
2026-05-07 21:31 41.82232 12.26817 11 ft 36 kts 162°
2026-05-07 21:31 41.81988 12.26919 12 ft 37 kts 162°
2026-05-07 21:31 41.81801 12.26931 12 ft 25 kts 193°
2026-05-07 21:32 41.81623 12.26935 10 ft 27 kts 163°
2026-05-07 21:32 41.81431 12.27016 10 ft 30 kts 162°
2026-05-07 21:32 41.81228 12.27101 12 ft 32 kts 162°
2026-05-07 21:32 41.81004 12.27193 12 ft 34 kts 162°
2026-05-07 21:33 41.80802 12.27184 14 ft 11 kts 229°
2026-05-07 21:33 41.80765 12.27099 13 ft 9 kts 242°
2026-05-07 21:33 41.80720 12.27053 13 ft 8 kts 194°
2026-05-07 21:33 41.80666 12.27046 13 ft 8 kts 184°
2026-05-07 21:34 41.80615 12.27035 13 ft 7 kts 203°
2026-05-07 21:34 41.80573 12.26931 14 ft 18 kts 252°
2026-05-07 21:34 41.80525 12.26750 15 ft 23 kts 249°
2026-05-07 21:34 41.80465 12.26532 16 ft 28 kts 249°
2026-05-07 21:35 41.80393 12.26273 15 ft 30 kts 250°
2026-05-07 21:35 41.80349 12.26175 14 ft 3 kts 246°
2026-05-07 21:35 41.80345 12.26142 14 ft 3 kts 257°
2026-05-07 21:35 41.80336 12.26114 15 ft 3 kts 242°
2026-05-07 21:36 41.80320 12.26099 14 ft 3 kts 207°
2026-05-07 21:36 41.80284 12.26074 14 ft 13 kts 207°
2026-05-07 21:36 41.80204 12.26052 15 ft 9 kts 136°
2026-05-07 21:36 41.80175 12.26121 14 ft 8 kts 112°
2026-05-07 21:37 41.80156 12.26187 15 ft 5 kts 87°
2026-05-07 21:37 41.80172 12.26198 14 ft 2 kts 31°
2026-05-07 21:37 41.80186 12.26208 14 ft 5 kts 28°
2026-05-07 21:37 41.80215 12.26228 15 ft 2 kts 24°
2026-05-07 21:38 41.80216 12.26229 14 ft 0 kts 23°
2026-05-07 21:38 41.80217 12.26229 14 ft 0 kts 23°